This is the latest recevied weather packets stored in our database for station/object KE8GJZ-2. If no packets are shown the sender has not sent any weather packets the latest 10 day(s).
| Time | Temp. | Humidity | Pressure | Rain* | Wind** | Luminosity | Snow |
|---|---|---|---|---|---|---|---|
| 1778154724 | 6.67° C | 74% | 1015.4 hPa | 0 mm | - | 95 W/m² | - |
| 1778154420 | 6.67° C | 74% | 1015.4 hPa | 0 mm | - | 93 W/m² | - |
| 1778154117 | 6.11° C | 76% | 1015.4 hPa | 0 mm | - | 88 W/m² | - |
| 1778153815 | 6.67° C | 77% | 1015.4 hPa | 0 mm | - | 72 W/m² | - |
| 1778153512 | 6.11° C | 76% | 1015.1 hPa | 0 mm | - | 51 W/m² | - |
| 1778153209 | 6.11° C | 76% | 1015 hPa | 0 mm | - | 46 W/m² | - |
| 1778152906 | 5.56° C | 78% | 1015 hPa | 0 mm | - | 40 W/m² | - |
| 1778152603 | 5° C | 80% | 1015.1 hPa | 0 mm | - | 35 W/m² | - |
| 1778152300 | 3.89° C | 82% | 1014.7 hPa | 0 mm | - | 30 W/m² | - |
| 1778151996 | 3.89° C | 83% | 1014.9 hPa | 0 mm | - | 21 W/m² | - |
| 1778151693 | 3.89° C | 83% | 1014.3 hPa | 0 mm | - | 18 W/m² | - |
| 1778151390 | 3.33° C | 83% | 1014.6 hPa | 0 mm | - | 15 W/m² | - |
| 1778151086 | 3.33° C | 84% | 1014.8 hPa | 0 mm | - | 12 W/m² | - |
| 1778150783 | 3.33° C | 83% | 1014.4 hPa | 0 mm | - | 8 W/m² | - |
| 1778150479 | 3.33° C | 84% | 1014.3 hPa | 0 mm | - | 6 W/m² | - |
| 1778150175 | 3.33° C | 84% | 1014.3 hPa | 0 mm | - | 3 W/m² | - |
| 1778149873 | 3.33° C | 84% | 1014.6 hPa | 0 mm | - | 1 W/m² | - |
| 1778149569 | 3.33° C | 84% | 1014.6 hPa | 0 mm | - | 0 W/m² | - |
| 1778149265 | 3.33° C | 84% | 1014.3 hPa | 0 mm | - | 0 W/m² | - |
| 1778148961 | 3.33° C | 83% | 1014.2 hPa | 0 mm | - | 0 W/m² | - |
| 1778148657 | 3.33° C | 83% | 1014.3 hPa | 0 mm | - | 0 W/m² | - |
| 1778148354 | 3.33° C | 83% | 1014.2 hPa | 0 mm | - | 0 W/m² | - |
| 1778148053 | 3.33° C | 83% | 1014.2 hPa | 0 mm | - | 0 W/m² | - |
| 1778147750 | 3.33° C | 83% | 1014.1 hPa | 0 mm | - | 0 W/m² | - |
| 1778147447 | 3.33° C | 83% | 1014.3 hPa | 0 mm | - | 0 W/m² | - |
* Rain latest hour (hover to see other rain measurements)
** Current wind speed in m/s (hover to see current wind gust speed)